| time (UTC) | temp F | wind direction | speed MPH | gust MPH | rain 1hr in | rain 24hr in | rain mn in | humidity % | barometer mb |
| 20260506062106 | 55 | 225 | 0.0 | 0.0 | 0.00 | 0.00 | 0.00 | 58 | 1010.9 |
| 20260506061106 | 55 | 225 | 2.0 | 3.0 | 0.00 | 0.00 | 0.00 | 58 | 1010.9 |
| 20260506060107 | 54 | 225 | 0.0 | 0.0 | 0.00 | 0.00 | 0.00 | 60 | 1010.9 |
| 20260506051106 | 50 | 180 | 0.0 | 0.0 | 0.00 | 0.00 | 0.00 | 60 | 1010.9 |
| 20260506050106 | 50 | 180 | 0.0 | 3.0 | 0.00 | 0.00 | 0.00 | 60 | 1010.9 |
| 20260506045106 | 49 | 180 | 1.0 | 3.0 | 0.00 | 0.00 | 0.00 | 59 | 1010.9 |
| 20260506044105 | 49 | 180 | 0.0 | 0.0 | 0.00 | 0.00 | 0.00 | 59 | 1010.9 |
| 20260506043106 | 49 | 157 | 4.0 | 4.0 | 0.00 | 0.00 | 0.00 | 59 | 1010.9 |
| 20260506042106 | 49 | 180 | 3.0 | 4.0 | 0.00 | 0.00 | 0.00 | 59 | 1010.9 |
| 20260506041106 | 49 | 180 | 0.0 | 0.0 | 0.00 | 0.00 | 0.00 | 59 | 1011.9 |
| 20260506040105 | 49 | 180 | 1.0 | 6.0 | 0.00 | 0.00 | 0.00 | 58 | 1011.9 |
| 20260506035105 | 49 | 180 | 1.0 | 0.0 | 0.00 | 0.00 | 0.00 | 58 | 1011.9 |
| 20260506034105 | 49 | 180 | 4.0 | 4.0 | 0.00 | 0.00 | 0.00 | 58 | 1011.9 |
| 20260506033106 | 49 | 247 | 3.0 | 3.0 | 0.00 | 0.00 | 0.00 | 57 | 1011.9 |
| 20260506032106 | 49 | 247 | 0.0 | 0.0 | 0.00 | 0.00 | 0.00 | 57 | 1011.9 |
| 20260506031106 | 49 | 247 | 0.0 | 0.0 | 0.00 | 0.00 | 0.00 | 56 | 1011.9 |
| 20260506030105 | 49 | 180 | 4.0 | 4.0 | 0.00 | 0.00 | 0.00 | 55 | 1011.9 |
| 20260506025105 | 50 | 292 | 0.0 | 0.0 | 0.00 | 0.00 | 0.00 | 54 | 1011.9 |
| 20260506024106 | 50 | 292 | 1.0 | 0.0 | 0.00 | 0.00 | 0.00 | 53 | 1011.9 |
| 20260506023105 | 51 | 247 | 0.0 | 0.0 | 0.00 | 0.00 | 0.00 | 51 | 1011.9 |
| 20260506022105 | 52 | 247 | 0.0 | 0.0 | 0.00 | 0.00 | 0.00 | 53 | 1011.9 |
| 20260506021106 | 52 | 247 | 3.0 | 3.0 | 0.00 | 0.00 | 0.00 | 53 | 1011.9 |
| 20260506020106 | 52 | 247 | 0.0 | 0.0 | 0.00 | 0.00 | 0.00 | 53 | 1011.9 |
| 20260506015106 | 52 | 270 | 4.0 | 3.0 | 0.00 | 0.00 | 0.00 | 53 | 1011.9 |
| 20260506014105 | 52 | 157 | 0.0 | 0.0 | 0.00 | 0.00 | 0.00 | 50 | 1011.9 |
| 20260506013106 | 53 | 157 | 0.0 | 0.0 | 0.00 | 0.00 | 0.00 | 50 | 1011.9 |
| 20260506012106 | 53 | 270 | 2.0 | 3.0 | 0.00 | 0.00 | 0.00 | 50 | 1011.9 |
| 20260506011106 | 53 | 247 | 2.0 | 4.0 | 0.00 | 0.00 | 0.00 | 48 | 1011.9 |
| 20260506010105 | 54 | 247 | 4.0 | 3.0 | 0.00 | 0.00 | 0.00 | 48 | 1011.9 |
| 20260506005105 | 54 | 180 | 6.0 | 5.0 | 0.00 | 0.00 | 0.00 | 49 | 1011.9 |
| 20260506004106 | 54 | 157 | 4.0 | 4.0 | 0.00 | 0.00 | 0.00 | 48 | 1011.9 |
| 20260506003106 | 54 | 180 | 5.0 | 5.0 | 0.00 | 0.00 | 0.00 | 48 | 1012.9 |
| 20260506002106 | 54 | 202 | 2.0 | 4.0 | 0.00 | 0.00 | 0.00 | 48 | 1012.9 |
| 20260506001105 | 54 | 247 | 0.0 | 0.0 | 0.00 | 0.00 | 0.00 | 48 | 1012.9 |
| 20260506000106 | 54 | 247 | 0.0 | 0.0 | 0.00 | 0.00 | 0.00 | 47 | 1012.9 |
| 20260505235106 | 55 | 247 | 0.0 | 0.0 | 0.00 | 0.00 | 0.00 | 47 | 1012.9 |
| 20260505234105 | 56 | 270 | 3.0 | 0.0 | 0.00 | 0.00 | 0.00 | 47 | 1012.9 |
| 20260505233107 | 56 | 270 | 4.0 | 4.0 | 0.00 | 0.00 | 0.00 | 46 | 1012.9 |
| 20260505232107 | 56 | 315 | 5.0 | 4.0 | 0.00 | 0.00 | 0.00 | 46 | 1012.9 |
| 20260505231106 | 57 | 315 | 4.0 | 4.0 | 0.00 | 0.00 | 0.00 | 42 | 1012.9 |
| 20260505230105 | 57 | 292 | 4.0 | 4.0 | 0.00 | 0.00 | 0.00 | 41 | 1012.9 |
| 20260505225105 | 57 | 270 | 6.0 | 9.0 | 0.00 | 0.00 | 0.00 | 43 | 1012.9 |
| 20260505224106 | 57 | 292 | 6.0 | 6.0 | 0.00 | 0.00 | 0.00 | 46 | 1011.9 |
| 20260505223106 | 56 | 225 | 4.0 | 5.0 | 0.00 | 0.00 | 0.00 | 53 | 1011.9 |
| 20260505222105 | 56 | 202 | 4.0 | 4.0 | 0.00 | 0.00 | 0.00 | 54 | 1011.9 |
| 20260505221107 | 56 | 180 | 1.0 | 4.0 | 0.00 | 0.00 | 0.00 | 55 | 1011.9 |
| 20260505220105 | 56 | 180 | 3.0 | 0.0 | 0.00 | 0.00 | 0.00 | 56 | 1011.9 |
| 20260505215105 | 56 | 270 | 3.0 | 0.0 | 0.00 | 0.00 | 0.00 | 58 | 1011.9 |
| 20260505214107 | 55 | 157 | 4.0 | 4.0 | 0.00 | 0.00 | 0.00 | 59 | 1011.9 |
| 20260505213106 | 54 | 247 | 4.0 | 4.0 | 0.00 | 0.00 | 0.00 | 60 | 1010.9 |
| 20260505212106 | 52 | 247 | 3.0 | 3.0 | 0.00 | 0.00 | 0.00 | 58 | 1010.9 |
| 20260505211105 | 51 | 315 | 2.0 | 4.0 | 0.00 | 0.00 | 0.00 | 57 | 1010.9 |
| 20260505210105 | 52 | 45 | 1.0 | 0.0 | 0.00 | 0.00 | 0.00 | 54 | 1010.9 |
| 20260505205105 | 52 | 45 | 0.0 | 0.0 | 0.00 | 0.00 | 0.00 | 53 | 1010.9 |
| 20260505204106 | 52 | 45 | 1.0 | 0.0 | 0.00 | 0.00 | 0.00 | 53 | 1010.9 |
| 20260505203105 | 52 | 292 | 3.0 | 4.0 | 0.00 | 0.00 | 0.00 | 53 | 1009.9 |
| 20260505202105 | 52 | 292 | 1.0 | 0.0 | 0.00 | 0.00 | 0.00 | 49 | 1009.9 |
| 20260505201106 | 53 | 180 | 0.0 | 0.0 | 0.00 | 0.00 | 0.00 | 49 | 1009.9 |
| 20260505200105 | 54 | 180 | 3.0 | 3.0 | 0.00 | 0.00 | 0.00 | 50 | 1009.9 |
| 20260505195105 | 54 | 180 | 0.0 | 0.0 | 0.00 | 0.00 | 0.00 | 49 | 1009.9 |
| 20260505194107 | 55 | 180 | 0.0 | 0.0 | 0.00 | 0.00 | 0.00 | 48 | 1009.9 |
| 20260505193106 | 56 | 180 | 0.0 | 3.0 | 0.00 | 0.00 | 0.00 | 48 | 1009.9 |
| 20260505192106 | 56 | 180 | 4.0 | 3.0 | 0.00 | 0.00 | 0.00 | 48 | 1009.9 |
| 20260505191105 | 56 | 202 | 2.0 | 3.0 | 0.00 | 0.00 | 0.00 | 48 | 1009.9 |
| 20260505190107 | 56 | 202 | 3.0 | 3.0 | 0.00 | 0.00 | 0.00 | 47 | 1009.9 |
| 20260505185107 | 57 | 202 | 0.0 | 0.0 | 0.00 | 0.00 | 0.00 | 47 | 1009.9 |
| 20260505184106 | 58 | 202 | 0.0 | 0.0 | 0.00 | 0.00 | 0.00 | 47 | 1008.9 |
| 20260505183105 | 58 | 202 | 0.0 | 0.0 | 0.00 | 0.00 | 0.00 | 47 | 1008.9 |
| 20260505182105 | 59 | 202 | 3.0 | 3.0 | 0.00 | 0.00 | 0.00 | 47 | 1008.9 |
| 20260505181106 | 59 | 202 | 0.0 | 0.0 | 0.00 | 0.00 | 0.00 | 48 | 1008.9 |
| 20260505180106 | 59 | 202 | 3.0 | 3.0 | 0.00 | 0.00 | 0.00 | 49 | 1008.9 |
| 20260505175106 | 59 | 225 | 3.0 | 4.0 | 0.00 | 0.00 | 0.00 | 51 | 1008.9 |
| 20260505174105 | 58 | 337 | 5.0 | 4.0 | 0.00 | 0.00 | 0.00 | 53 | 1008.9 |
| 20260505173107 | 58 | 337 | 6.0 | 4.0 | 0.00 | 0.00 | 0.00 | 51 | 1008.9 |
| 20260505172107 | 59 | 292 | 7.0 | 5.0 | 0.00 | 0.00 | 0.00 | 49 | 1008.9 |
| 20260505171106 | 59 | 337 | 7.0 | 5.0 | 0.00 | 0.00 | 0.00 | 46 | 1008.9 |
| 20260505170107 | 60 | 0 | 8.0 | 8.0 | 0.00 | 0.00 | 0.00 | 41 | 1008.9 |
| 20260505165106 | 60 | 292 | 12.0 | 8.0 | 0.00 | 0.00 | 0.00 | 35 | 1008.9 |
| 20260505164106 | 62 | 270 | 16.0 | 27.0 | 0.00 | 0.00 | 0.00 | 32 | 1008.9 |
| 20260505163107 | 64 | 292 | 11.0 | 10.0 | 0.00 | 0.00 | 0.00 | 21 | 1007.9 |
| 20260505162106 | 66 | 225 | 8.0 | 7.0 | 0.00 | 0.00 | 0.00 | 27 | 1007.9 |
| 20260505161105 | 69 | 315 | 7.0 | 7.0 | 0.00 | 0.00 | 0.00 | 20 | 1007.9 |
| 20260505160106 | 72 | 112 | 0.0 | 0.0 | 0.00 | 0.00 | 0.00 | 18 | 1007.9 |
| 20260505153105 | 75 | 67 | 1.0 | 3.0 | 0.00 | 0.00 | 0.00 | 18 | 1007.9 |
| 20260505152105 | 75 | 67 | 0.0 | 0.0 | 0.00 | 0.00 | 0.00 | 18 | 1007.9 |
| 20260505151106 | 76 | 67 | 0.0 | 0.0 | 0.00 | 0.00 | 0.00 | 18 | 1007.9 |
| 20260505150105 | 77 | 67 | 1.0 | 0.0 | 0.00 | 0.00 | 0.00 | 17 | 1007.9 |
| 20260505140106 | 80 | 90 | 3.0 | 3.0 | 0.00 | 0.00 | 0.00 | 17 | 1007.9 |
| 20260505130106 | 83 | 0 | 5.0 | 3.0 | 0.00 | 0.00 | 0.00 | 15 | 1008.9 |
| 20260505124105 | 82 | 45 | 3.0 | 4.0 | 0.00 | 0.00 | 0.00 | 15 | 1008.9 |
| 20260505123106 | 81 | 45 | 5.0 | 5.0 | 0.00 | 0.00 | 0.00 | 15 | 1008.9 |
| 20260505122106 | 80 | 90 | 3.0 | 3.0 | 0.00 | 0.00 | 0.00 | 17 | 1008.9 |
| 20260505121105 | 79 | 22 | 5.0 | 5.0 | 0.00 | 0.00 | 0.00 | 17 | 1008.9 |
| 20260505120106 | 79 | 22 | 3.0 | 3.0 | 0.00 | 0.00 | 0.00 | 17 | 1008.9 |
| 20260505115104 | 77 | 315 | 3.0 | 6.0 | 0.00 | 0.00 | 0.00 | 17 | 1008.9 |
| 20260505114104 | 78 | 247 | 5.0 | 6.0 | 0.00 | 0.00 | 0.00 | 17 | 1008.9 |
| 20260505113105 | 79 | 22 | 3.0 | 4.0 | 0.00 | 0.00 | 0.00 | 17 | 1009.9 |
| 20260505112105 | 78 | 337 | 5.0 | 7.0 | 0.00 | 0.00 | 0.00 | 17 | 1009.9 |
| 20260505111104 | 78 | 157 | 3.0 | 0.0 | 0.00 | 0.00 | 0.00 | 17 | 1009.9 |
| 20260505110105 | 76 | 247 | 4.0 | 3.0 | 0.00 | 0.00 | 0.00 | 18 | 1009.9 |
| 20260505101024 | 76 | 0 | 3.0 | 3.0 | 0.00 | 0.00 | 0.00 | 18 | 1010.9 |
| 20260505100025 | 74 | 22 | 5.0 | 5.0 | 0.00 | 0.00 | 0.00 | 18 | 1010.9 |
| 20260505095025 | 74 | 157 | 5.0 | 5.0 | 0.00 | 0.00 | 0.00 | 18 | 1010.9 |
| 20260505094024 | 74 | 22 | 3.0 | 3.0 | 0.00 | 0.00 | 0.00 | 18 | 1010.9 |
| 20260505093024 | 74 | 0 | 3.0 | 4.0 | 0.00 | 0.00 | 0.00 | 18 | 1010.9 |
| 20260505092024 | 73 | 337 | 3.0 | 4.0 | 0.00 | 0.00 | 0.00 | 18 | 1010.9 |
| 20260505091025 | 72 | 135 | 2.0 | 6.0 | 0.00 | 0.00 | 0.00 | 18 | 1010.9 |
| 20260505090025 | 71 | 315 | 4.0 | 3.0 | 0.00 | 0.00 | 0.00 | 18 | 1010.9 |
| 20260505085025 | 71 | 135 | 1.0 | 4.0 | 0.00 | 0.00 | 0.00 | 18 | 1010.9 |
| 20260505084025 | 70 | 337 | 3.0 | 3.0 | 0.00 | 0.00 | 0.00 | 20 | 1010.9 |
| 20260505083024 | 70 | 22 | 3.0 | 3.0 | 0.00 | 0.00 | 0.00 | 20 | 1010.9 |
| 20260505082024 | 69 | 0 | 4.0 | 4.0 | 0.00 | 0.00 | 0.00 | 20 | 1010.9 |
| 20260505081024 | 69 | 202 | 4.0 | 3.0 | 0.00 | 0.00 | 0.00 | 23 | 1010.9 |
| 20260505080024 | 68 | 90 | 3.0 | 3.0 | 0.00 | 0.00 | 0.00 | 26 | 1011.9 |
| 20260505075024 | 67 | 112 | 3.0 | 3.0 | 0.00 | 0.00 | 0.00 | 30 | 1011.9 |
| 20260505074025 | 66 | 22 | 0.0 | 0.0 | 0.00 | 0.00 | 0.00 | 30 | 1011.9 |
| 20260505073025 | 65 | 0 | 3.0 | 3.0 | 0.00 | 0.00 | 0.00 | 31 | 1011.9 |
| 20260505072025 | 65 | 157 | 3.0 | 0.0 | 0.00 | 0.00 | 0.00 | 32 | 1011.9 |
| 20260505071024 | 64 | 0 | 3.0 | 3.0 | 0.00 | 0.00 | 0.00 | 34 | 1011.9 |
| 20260505070025 | 63 | 0 | 0.0 | 0.0 | 0.00 | 0.00 | 0.00 | 34 | 1011.9 |